Tracking 17739 objects as of 26-June-2016
HD Live streaming from Space Station
objects crossing your sky now

COSMOS 1478

Track COSMOS 1478 now!
10-day predictions
COSMOS 1478 is classified as:


NORAD ID: 14176
Int'l Code: 1983-069F
Perigee: 1,469.3 km
Apogee: 1,489.0 km
Inclination: 74.0 °
Period: 115.4 minutes
Semi major axis: 7850 km
RCS: 0.7085 m2 (medium)
Launch date: July 6, 1983
Source: Commonwealth of Independent States (former USSR) (CIS)
Launch site: PLESETSK MISSILE AND SPACE COMPLEX (PKMTR)
Your satellite tracking list
Your tracking list is empty





NASA's NSSDC Master Catalog

Two Line Element Set (TLE):
1 14176U 83069F   16177.23503884 -.00000025  00000-0 -59102-4 0  9990
2 14176  74.0227 187.3886 0012542 227.3472 212.8087 12.48213199502639
Source of the keplerian elements: AFSPC

N2YO: 790